Location: Homer
(59.6430°N, 151.5480°W)
Time: 00:59:09
(UTC-09:00)

Daily predictions for brighter satellites

Satellite Brightness Start Highest point End
(mag) Time Altitude Azimuth Time Altitude Azimuth Time Altitude Azimuth
CENTAUR R/B 4.4 03:43:33 26° E 03:43:33 26° E 03:47:18 10° ENE
Cosmos 2219 Rocket 4.4 04:04:34 20° NE 04:04:34 20° NE 04:06:13 10° NE
ATLAS 3B R/B 3.9 04:06:36 39° NE 04:06:36 39° NE 04:10:49 10° ENE
ADEOS II 4.4 04:04:39 10° NE 04:07:28 19° ENE 04:07:28 19° ENE
Cosmos 1943 Rocket 4.4 04:19:13 18° ESE 04:19:13 18° ESE 04:20:38 10° ESE
ADEOS Rocket 4.4 04:13:52 10° NNE 04:17:25 34° NE 04:17:25 34° NE
NOSS 3-2 (C) 4.4 04:34:26 49° ENE 04:34:26 49° ENE 04:39:34 10° ENE
CZ-4C R/B 3.5 04:35:12 45° NE 04:35:12 45° NE 04:40:13 10° ENE
Cosmos 2333 Rocket 3.9 04:41:03 29° NE 04:41:03 29° NE 04:43:40 10° NE
Lacrosse 5 4.3 04:50:03 15° SE 04:50:03 15° SE 04:52:36 10° E
SL-16 R/B 3.4 04:52:57 38° ENE 04:52:57 38° ENE 04:56:38 10° NE
Cosmos 2360 Rocket 4.0 04:54:45 24° NNE 04:54:45 24° NNE 04:57:21 10° NE
Cosmos 1980 Rocket 4.0 04:55:13 24° NNE 04:55:13 24° NNE 04:58:33 10° NE
Cosmos 2322 Rocket 4.0 04:55:55 24° NNE 04:55:55 24° NNE 04:58:56 10° NE
NOSS 3-2 (A) 4.1 04:55:49 60° NE 04:55:49 60° NE 05:01:46 10° ENE
Lacrosse 5 rocket 4.1 05:01:22 17° E 05:01:22 17° E 05:02:26 10° E
COSMOS 2428 4.1 05:13:21 31° NNE 05:13:21 31° NNE 05:16:38 10° NE
Cosmos 2237 Rocket 3.2 05:18:51 39° NNE 05:18:51 39° NNE 05:22:23 10° NE
CZ-4B R/B 3.9 05:19:30 10° NNE 05:23:31 48° NNE 05:23:31 48° NNE
Cosmos 1697 Rocket 4.1 05:25:27 28° N 05:25:37 28° NNE 05:30:30 10° ENE
SL-16 R/B 3.7 05:26:28 26° N 05:26:28 26° N 05:30:26 10° NE
Lacrosse 4 Rocket 3.9 05:32:24 15° SE 05:32:24 15° SE 05:33:06 10° SE
ATLAS 5 CENTAUR R/B 2.6 05:29:56 56° NE 05:29:56 56° NE 05:35:10 10° E
Resurs 1-4 Rocket 4.3 05:25:29 10° N 05:26:30 15° N 05:26:30 15° N
CENTAUR R/B 2.6 05:30:44 79° S 05:31:01 81° SE 05:38:30 10° ENE
COSMOS 2455 3.6 05:33:26 41° N 05:33:26 41° N 05:38:54 10° ENE
Cosmos 2369 Rocket 4.2 05:37:31 17° S 05:37:31 17° S 05:38:44 10° SSE
Nadezhda 3 Rocket 4.0 05:33:54 67° N 05:34:50 84° ENE 05:41:15 10° SSE
Meteor 1-25 Rocket 4.5 05:35:52 65° NNE 05:35:52 65° NNE 05:40:46 10° NNE
Meteor 2-4 Rocket 3.8 05:44:30 70° SE 05:44:30 70° SE 05:49:31 10° SSE
Meteor 1-23 Rocket 4.2 05:44:00 73° NE 05:44:16 75° ENE 05:49:50 10° SSE
Cosmos 2219 Rocket 3.1 05:46:17 37° N 05:46:17 37° N 05:50:20 10° NE
ADEOS II 2.2 05:43:47 10° NNE 05:48:24 68° NNE 05:48:24 68° NNE
Cosmos 1603 4.1 05:48:12 47° S 05:49:32 60° ESE 05:55:06 10° NE
Cosmos 1867 3.7 05:50:35 70° NNE 05:50:35 70° NNE 05:56:02 10° ESE
Cosmos 2327 Rocket 4.4 05:50:13 51° SSW 05:51:58 89° W 05:58:15 10° NNE
Cosmos 1980 4.4 05:54:07 43° N 05:54:07 43° N 05:58:34 10° NE
USA 238 DEB 3.8 05:52:06 57° NW 05:53:13 65° N 06:00:16 10° E
USA 238 3.8 05:52:12 57° NW 05:53:19 65° N 06:00:22 10° E
Cosmos 1607 4.2 05:53:17 52° NNW 05:53:54 54° N 06:00:02 10° E
ATLAS 3B R/B 2.9 05:53:51 55° NW 05:55:17 67° NNE 06:02:07 10° E
Cosmos 1680 Rocket 3.9 05:59:30 51° N 05:59:30 51° N 06:03:32 10° NNE
Cosmos 1110 Rocket 4.4 05:58:01 49° N 05:59:02 58° NE 06:04:11 10° SE
Cosmos 1943 Rocket 2.7 06:00:46 45° S 06:00:46 45° S 06:04:45 10° SSE
Cosmos 44 Rocket 4.4 05:58:56 32° S 06:00:35 43° SE 06:05:22 10° ENE
Cosmos 2074 Rocket 3.8 06:00:34 59° SW 06:01:47 78° WNW 06:08:05 10° NNE
ADEOS Rocket 3.3 05:59:38 10° NNE 06:04:22 48° NNW 06:04:22 48° NNW
CZ-2D R/B 4.0 06:02:43 10° N 06:04:20 17° N 06:04:20 17° N
Helios 1B rocket 4.0 06:04:57 10° ESE 06:08:43 34° ENE 06:10:31 23° NNE
Meteor 2-8 Rocket 4.5 06:03:18 13° NNW 06:08:52 80° ENE 06:15:03 10° SSE
Cosmos 1943 4.2 06:03:55 10° S 06:09:15 46° ESE 06:14:39 10° NE
SeaSat 1 3.9 06:10:24 10° NE 06:13:41 24° N 06:13:41 24° N
Okean 1 Rocket 3.3 06:15:10 63° NNE 06:15:10 63° NNE 06:18:54 10° NNE
Okean O Rocket 3.9 06:10:32 10° N 06:11:14 14° N 06:11:14 14° N
Cosmos 1656 Rocket 3.5 06:14:31 66° NW 06:15:21 83° SW 06:21:03 10° SSE
Okean 2 4.2 06:19:57 43° S 06:19:57 43° S 06:22:49 10° SSE
Cosmos 2341 Rocket 4.2 06:13:16 10° S 06:19:29 69° E 06:25:41 10° NNE
Cosmos 2112 Rocket 4.2 06:20:18 55° NNW 06:20:18 55° NNW 06:24:54 10° NNE
Cosmos 1536 3.1 06:20:09 39° SSE 06:21:29 65° E 06:25:31 10° NNE
CZ-4C R/B 2.7 06:20:23 48° NW 06:22:25 77° NNE 06:29:48 10° ESE
Cosmos 2333 Rocket 2.9 06:23:03 37° NNW 06:23:03 37° NNW 06:28:08 10° NE
COSMO-SKYMED 1 4.3 06:18:38 10° S 06:20:11 21° S 06:20:11 21° S
Cosmos 2184 Rocket 3.9 06:22:03 46° SW 06:23:46 62° WNW 06:30:01 10° N
NOSS 3-2 (C) 3.8 06:21:53 48° WNW 06:23:47 65° N 06:31:12 10° E
DNEPR-1 R/B 4.2 06:21:59 44° SW 06:24:02 81° SE 06:29:20 10° ENE
Cosmos 192 4.3 06:23:13 45° SSW 06:24:45 81° ESE 06:29:41 10° NNE
Meteor 1-20 Rocket 4.2 06:25:23 56° NW 06:25:23 56° NW 06:30:25 10° NNE
Okean-O 3.0 06:21:31 10° NNE 06:24:56 51° N 06:24:56 51° N
NOAA 6 4.2 06:23:17 10° NNE 06:28:26 73° ESE 06:33:34 10° S
SJ-6F 4.5 06:24:30 10° NNE 06:28:36 76° ESE 06:31:27 19° S
CZ-4 R/B 4.0 06:26:32 10° NE 06:29:35 21° E 06:32:34 10° SE
Cosmos 1340 4.5 06:31:57 22° S 06:31:57 22° S 06:33:24 10° S
Cosmos 1892 Rocket 3.4 06:30:47 78° WSW 06:30:47 78° WSW 06:35:15 10° S
Lacrosse 5 3.0 06:29:16 25° SSW 06:31:36 40° SSE 06:36:21 10° E
Cosmos 1302 Rocket 4.5 06:29:45 30° NNW 06:32:13 59° NE 06:37:27 10° SE
Cosmos 1300 Rocket 4.4 06:34:04 37° N 06:34:04 37° N 06:36:52 10° N
SL-16 R/B 2.4 06:34:51 49° WNW 06:35:23 51° NW 06:40:56 10° NE
Meteor 1-28 Rocket 4.2 06:32:18 10° S 06:34:45 37° S 06:34:45 37° S
SL-08 ROCKET BODY 4.4 06:36:34 48° W 06:36:56 49° WNW 06:42:37 10° N
Lacrosse 5 rocket 1.7 06:37:05 53° SSW 06:37:13 53° SSW 06:41:31 10° ESE
Cosmos 2360 Rocket 3.5 06:36:31 25° NNW 06:37:36 26° N 06:42:19 10° NE
Cosmos 2278 4.1 06:35:34 30° NNW 06:38:15 58° NE 06:43:50 10° ESE
Cosmos 1980 Rocket 3.4 06:36:59 24° NNW 06:39:26 34° NNE 06:44:31 10° E
Cosmos 2322 Rocket 3.6 06:37:44 23° NNW 06:39:41 28° NNE 06:44:34 10° ENE
Feng Yun 1-1 Rocket 4.1 06:34:14 10° NNE 06:39:53 72° WNW 06:45:21 10° SSW
Cosmos 2154 Rocket 3.8 06:33:58 10° SSW 06:40:11 78° WNW 06:46:26 10° NNE
Cosmos 405 Rocket 3.8 06:38:38 24° N 06:40:33 42° ENE 06:44:09 10° SE
NOSS 0 Rocket 4.5 06:39:46 37° NW 06:40:51 40° NNW 06:46:44 10° NE
Cosmos 1626 Rocket 4.0 06:38:09 21° N 06:41:03 61° ENE 06:45:25 10° SSE
Cosmos 44 4.2 06:36:35 13° SSW 06:41:03 51° SE 06:45:56 10° ENE
NOSS 3-2 (A) 3.9 06:43:12 38° WNW 06:46:01 66° N 06:53:32 10° E
Cosmos 1066 Rocket 4.3 06:44:58 13° NNW 06:49:47 72° ENE 06:55:15 10° SSE
CSL-04 Rocket 4.3 06:46:45 10° NNE 06:52:17 58° ESE 06:57:43 10° S
Meteor 1-31 Rocket 4.5 06:51:53 10° N 06:53:16 21° N 06:53:16 21° N
COSMOS 2428 3.9 06:55:23 25° NNW 06:56:45 28° N 07:01:38 10° NE
Ariane Rocket 3.2 06:52:29 10° NNE 06:57:34 72° ESE 07:02:37 10° S
Cosmos 1331 Rocket 3.9 06:59:00 34° NW 07:01:17 71° WSW 07:06:25 10° SSE
Cosmos 2237 Rocket 3.0 07:00:41 30° NW 07:01:43 32° NNW 07:06:46 10° NE
Cosmos 1455 Rocket 3.6 06:58:26 10° S 07:02:43 59° E 07:07:02 10° NNE
CZ-4B R/B 4.3 06:58:30 10° N 07:02:51 48° WNW 07:04:11 36° WSW
SL-8 Rocket 4.0 06:56:46 10° S 07:03:00 83° E 07:09:14 10° NNE
CZ-4B R/B 3.9 07:00:28 10° N 07:05:17 32° NW 07:05:24 32° NW
Meteor 1-29 3.1 07:03:18 10° SSE 07:06:40 71° ENE 07:08:14 30° N
Lacrosse 4 Rocket 3.3 07:08:47 15° SW 07:08:47 15° SW 07:10:04 10° SSW
Resurs 1-4 Rocket 4.1 07:06:24 10° N 07:07:36 12° NNW 07:07:36 12° NNW
Cosmos 1975 3.8 07:05:45 10° S 07:09:43 49° E 07:13:42 10° NNE
Cosmos 1697 Rocket 3.3 07:07:11 21° NNW 07:10:49 52° NE 07:16:20 10° ESE
SL-16 R/B 3.4 07:08:19 20° NNW 07:11:21 31° NNE 07:16:23 10° E
ATLAS 5 CENTAUR R/B 2.2 07:11:29 31° WNW 07:14:20 86° SSW 07:20:32 10° ESE
Cosmos 1959 Rocket 4.5 07:08:51 10° S 07:14:57 85° E 07:21:08 10° NNE
Cosmos 1656 4.0 07:11:26 21° NNW 07:15:11 62° NE 07:20:50 10° SE
Cosmos 2366 rocket 4.1 07:11:05 10° S 07:17:25 81° E 07:23:49 10° NNE
Cosmos 1441 Rocket 4.3 07:15:55 12° N 07:19:30 46° ENE 07:23:18 10° SE
Blok-2BL 4.2 07:18:02 34° WNW 07:20:02 71° NNE 07:24:41 10° ESE
COSMOS 2455 3.3 07:16:35 24° NW 07:20:09 54° NNE 07:26:05 10° E
Cosmos 1295 Rocket 4.4 07:14:21 10° SSW 07:20:36 69° WNW 07:26:48 10° NNE
CENTAUR R/B 2.9 07:17:56 26° W 07:22:07 67° N 07:29:51 10° ENE
SL-27 R/B 4.2 07:21:16 10° S 07:24:36 36° ESE 07:28:01 10° NE
Cosmos 1515 4.0 07:26:03 33° NW 07:27:15 45° W 07:30:56 10° SSW
ADEOS II 2.9 07:23:59 10° N 07:28:23 28° NW 07:29:21 26° WNW
YAOGAN 1 3.6 07:24:56 10° NNE 07:29:10 48° E 07:33:22 10° S
Radarsat Rocket 4.4 07:23:18 10° NNE 07:30:09 72° WNW 07:37:54 10° SW
Cosmos 2219 Rocket 3.4 07:28:00 21° NW 07:30:14 27° N 07:35:01 10° NE
Cosmos 2218 Rocket 4.0 07:23:56 10° SSW 07:30:21 81° WNW 07:36:46 10° NNE
Meteor 1-11 Rocket 4.0 07:27:17 10° SW 07:32:43 43° WNW 07:38:06 10° N
Cosmos 1603 3.9 07:30:10 20° WSW 07:33:55 48° NW 07:39:23 10° NE
Cosmos 1867 3.9 07:31:16 26° WNW 07:34:07 49° SW 07:39:20 10° SSE
COSMOS 2406 4.3 07:29:40 10° S 07:35:05 48° ESE 07:40:32 10° NE
Cosmos 2369 3.7 07:31:08 20° NW 07:35:12 83° SW 07:40:53 10° SSE
CSL-04 DEB 4.4 07:31:46 10° NNE 07:35:47 63° WNW 07:39:53 10° SSW
Cosmos 1602 Rocket 3.8 07:34:57 16° NNW 07:38:24 51° W 07:42:43 10° S
Cosmos 1727 Rocket 4.2 07:35:33 10° NNW 07:41:28 48° W 07:47:22 10° SSW
Cosmos 1607 4.0 07:37:24 21° NW 07:41:44 83° NNE 07:48:02 10° ESE
Meteor 2-15 Rocket 4.4 07:35:39 10° NNW 07:41:50 86° WSW 07:47:57 10° S
Cosmos 44 Rocket 3.3 07:37:42 15° WSW 07:42:01 72° NNW 07:47:03 10° ENE
Cosmos 1943 Rocket 3.7 07:42:21 16° WSW 07:42:21 16° WSW 07:45:18 10° SW
Cosmos 2084 Rocket 3.2 07:40:52 28° WNW 07:42:42 66° SSW 07:46:32 10° SE
Helios 1B rocket 2.7 07:39:58 10° S 07:43:58 46° W 07:46:54 17° NNW
USA 238 DEB 3.8 07:39:32 20° WNW 07:44:40 89° SW 07:51:47 10° ESE
USA 238 3.8 07:39:38 20° WNW 07:44:46 90° SW 07:51:53 10° ESE
Meteor 1-5 Rocket 4.1 07:39:47 10° SW 07:45:01 57° WNW 07:50:17 10° NNE
CZ-2D R/B 4.1 07:44:22 10° NNW 07:45:35 11° NNW 07:45:40 11° NNW
ATLAS 3B R/B 2.7 07:41:06 20° WNW 07:46:17 75° SW 07:52:59 10° SE
ADEOS Rocket 4.3 07:45:54 10° N 07:49:55 19° NW 07:51:20 18° NW
Okean O Rocket 3.8 07:48:23 10° NNW 07:48:42 11° NNW 07:48:42 11° NNW
SeaSat 1 4.0 07:47:10 10° NE 07:50:50 21° N 07:53:29 14° NW
Cosmos 1544 Rocket 3.7 07:47:39 10° SW 07:51:56 49° WNW 07:56:17 10° N
Okean 1 Rocket 4.2 07:52:27 21° WNW 07:52:59 22° WNW 07:56:24 10° N
Cosmos 1943 3.2 07:47:42 10° WSW 07:53:17 58° NW 07:58:55 10° NE
IDEFIX/ARIANE 42P 2.7 07:48:39 10° NNE 07:53:54 78° ESE 07:59:06 10° SSW
Meteor 1-21 4.2 07:51:36 10° NNW 07:57:13 72° WSW 08:02:51 10° S
Cosmos 1953 Rocket 3.6 07:53:00 10° NNW 07:57:27 83° ENE 08:01:55 10° SSE
Cosmos 1536 3.9 07:56:09 15° WSW 07:58:21 23° WNW 08:01:39 10° N
Cosmos 1758 Rocket 3.7 07:54:12 10° NNW 07:58:39 80° ENE 08:03:00 10° SSE
Cosmos 1461 4.0 07:54:55 10° SSW 07:58:57 47° SE 08:02:54 10° ENE
Cosmos 158 Rocket 4.1 07:53:55 10° SSW 07:59:18 87° ESE 08:04:46 10° NNE
Meteor 2-19 Rocket 4.5 07:55:03 10° SW 08:01:02 55° WNW 08:07:01 10° N
CZ-2C R/B 2.5 07:56:27 10° NNE 08:01:42 90° ESE 08:06:47 10° SSW
Okean-O 4.0 07:58:47 10° N 08:01:51 19° NW 08:02:31 18° WNW
Cosmos 1842 3.2 07:57:55 10° NNW 08:01:53 85° WSW 08:05:46 10° S
PAYLOAD A 4.1 07:58:23 10° NNE 08:03:43 71° WNW 08:09:08 10° SSW
Cosmos 1500 3.1 08:00:15 10° SSW 08:04:00 68° WNW 08:07:49 10° N
Cosmos 1437 2.7 08:01:49 13° NNW 08:04:42 72° WSW 08:07:57 10° S
CZ-4 R/B 1.2 08:01:06 10° NNE 08:05:04 67° WNW 08:08:57 10° SSW
Cosmos 1743 2.9 08:04:29 10° S 08:08:24 78° ESE 08:12:20 10° NNE
Cosmos 2333 Rocket 3.4 08:05:04 15° NW 08:08:38 27° N 08:13:24 10° ENE
CZ-4C R/B 3.1 08:05:34 15° WNW 08:11:02 57° SW 08:18:24 10° SSE
DNEPR-1 R/B 4.3 08:06:21 12° W 08:11:48 55° NNW 08:16:40 10° ENE
Cosmos 2084 3.5 08:09:21 10° SW 08:13:09 68° SSE 08:16:57 10° ENE
Cosmos 1825 Rocket 3.6 08:09:17 10° NNW 08:13:42 59° W 08:18:03 10° S
Lacrosse 5 2.3 08:09:06 10° WSW 08:14:11 65° S 08:19:14 10° E
Cosmos 1346 4.2 08:11:54 10° N 08:14:44 40° ENE 08:17:30 10° SE
NOSS 3-2 (C) 3.9 08:09:19 15° WNW 08:15:23 79° NNE 08:23:08 10° ESE
SMAP 3.0 08:11:02 10° NNE 08:15:43 75° WNW 08:20:22 10° SSW
Lacrosse 5 rocket 2.9 08:12:48 12° W 08:15:58 26° SW 08:19:42 10° SSE
Cosmos 405 Rocket 3.6 08:13:53 14° NW 08:16:30 29° W 08:19:46 10° SSW
SL-16 R/B 3.2 08:16:45 14° WNW 08:20:44 28° NNW 08:25:36 10° NE
Cosmos 44 3.4 08:17:07 10° WSW 08:22:19 65° NNW 08:27:15 10° ENE
Cosmos 2278 4.1 08:17:29 12° NW 08:22:22 46° WSW 08:27:43 10° S
MONITOR-E 4.2 08:19:46 10° NNE 08:23:00 79° WNW 08:26:12 10° SSW
Cosmos 2360 Rocket 3.3 08:18:16 11° NW 08:23:09 34° NNE 08:28:16 10° E
Cosmos 1980 Rocket 2.3 08:18:45 11° NW 08:24:13 80° NE 08:29:50 10° SE
Cosmos 2322 Rocket 2.8 08:19:33 11° NW 08:24:59 50° NE 08:30:30 10° ESE
Resurs 01 Rocket 4.0 08:21:30 10° NE 08:25:14 25° E 08:28:57 10° SSE
Cosmos 2058 Rocket 4.3 08:23:48 10° SSE 08:28:08 47° E 08:32:29 10° NNE
SJ-12 4.2 08:28:26 10° N 08:32:25 45° WNW 08:36:24 10° SW
CSL-04 Rocket 4.1 08:27:19 10° NNE 08:32:29 40° NW 08:37:35 10° WSW
Cosmos 1809 Rocket 4.5 08:27:03 10° SSW 08:33:12 64° WNW 08:39:23 10° NNE
Cosmos 2228 4.4 08:30:18 10° SSE 08:34:18 41° E 08:38:20 10° NNE
AQUARIUS 4.3 08:30:16 10° N 08:34:41 53° WNW 08:39:04 10° SW
Cosmos 1269 Rocket 4.3 08:29:57 10° WSW 08:35:04 48° NW 08:40:15 10° NNE
Cosmos 1992 Rocket 4.1 08:30:03 10° NW 08:35:12 61° WSW 08:40:21 10° SSE
Ariane Rocket 3.7 08:31:51 10° N 08:36:15 31° NW 08:40:38 10° WSW
USA 229 DEB 3.8 08:29:25 10° WSW 08:36:24 87° NNW 08:43:31 10° ENE
USA 229 3.8 08:29:32 10° WSW 08:36:30 87° NNW 08:43:37 10° ENE
NOSS 3-2 (A) 3.9 08:30:36 11° WNW 08:37:26 88° SW 08:45:15 10° ESE
Cosmos 374 Rocket 4.2 08:34:13 12° WNW 08:37:56 87° NNE 08:41:43 10° ESE
COSMOS 2487 3.4 08:36:42 10° SSW 08:40:13 54° ESE 08:43:46 10° NE
Cosmos 1455 Rocket 3.9 08:37:11 10° WSW 08:40:55 27° WNW 08:44:41 10° N
Meteor 1-12 Rocket 4.5 08:36:09 10° SW 08:41:36 47° WNW 08:47:08 10° NNE
COSMOS 2428 3.8 08:37:32 10° NW 08:42:39 32° NNE 08:47:44 10° E
Cosmos 1975 3.7 08:42:50 10° SW 08:46:27 29° WNW 08:50:06 10° N
Cosmos 2237 Rocket 3.4 08:42:39 10° NW 08:47:23 27° N 08:52:08 10° ENE
USA 215 4.0 08:41:25 10° E 08:47:51 57° SSE 08:54:18 10° WSW
NOSS 3-1 (A) 4.2 08:44:45 10° SW 08:50:51 64° SE 08:57:49 10° ENE
ALOS 3.9 08:47:08 10° NNE 08:51:31 38° E 08:55:52 10° SSE
Cosmos 2251 Rocket 3.6 08:46:24 10° SW 08:51:48 77° NW 08:57:14 10° NNE
CORIOLIS 4.2 08:48:33 10° NNE 08:53:48 56° WNW 08:59:01 10° SW
Nimbus 7 Rocket 4.5 08:48:06 10° SSE 08:53:57 72° WSW 08:59:51 10° NNW
Cosmos 1048 Rocket 4.4 08:49:46 10° WSW 08:54:40 40° NW 08:59:40 10° NNE
Cosmos 1697 Rocket 3.0 08:49:24 10° NW 08:54:55 54° WSW 09:00:25 10° SSE
Cosmos 2285 Rocket 4.3 08:48:35 10° NNW 08:54:56 72° NE 09:01:17 10° SE
Cosmos 1441 Rocket 4.3 08:51:54 10° NNW 08:55:20 28° W 08:58:44 10° SSW
SL-16 R/B 2.5 08:50:46 10° NW 08:56:28 65° NE 09:02:07 10° SE
ATLAS 5 CENTAUR R/B 3.3 08:53:32 10° WNW 08:58:44 35° SW 09:04:19 10° S
Cosmos 1656 4.3 08:53:26 10° NW 08:58:44 42° WSW 09:04:03 10° S
Cosmos 1934 Rocket 3.9 08:53:45 10° SSW 08:59:49 76° WNW 09:05:59 10° NNE
SL-27 R/B 3.1 08:56:27 10° WSW 08:59:53 37° NW 09:03:22 10° NNE
SPOT 3 Rocket 3.8 08:55:20 10° NNE 09:00:17 47° WNW 09:05:11 10° SW
SJ-6B 3.0 09:00:13 10° NNE 09:04:08 79° ESE 09:08:06 10° SSW
Cosmos 2123 Rocket 4.4 08:59:01 10° NNW 09:04:55 45° W 09:10:45 10° SSW
YAOGAN 1 3.2 09:01:16 10° N 09:05:12 34° WNW 09:09:08 10° SW
COSMOS 2455 3.0 09:00:23 10° NW 09:06:25 71° SW 09:12:25 10° SE
